| time (UTC) | temp F | wind direction | speed MPH | gust MPH | rain 1hr in | rain 24hr in | rain mn in | humidity % | barometer mb |
| 20260903151352 | 87 | 179 | 6.0 | 15.0 | 0.00 | 0.00 | 0.00 | 65 | 1013.4 |
| 20260903150851 | 88 | 213 | 7.0 | 14.0 | 0.00 | 0.00 | 0.00 | 68 | 1013.4 |
| 20260903150351 | 87 | 193 | 6.0 | 14.0 | 0.00 | 0.00 | 0.00 | 67 | 1013.3 |
| 20260903145852 | 87 | 159 | 8.0 | 13.0 | 0.00 | 0.00 | 0.00 | 67 | 1013.5 |
| 20260903145351 | 87 | 235 | 3.0 | 14.0 | 0.00 | 0.00 | 0.00 | 67 | 1013.5 |
| 20260903144851 | 86 | 144 | 7.0 | 18.0 | 0.00 | 0.00 | 0.00 | 68 | 1013.6 |
| 20260903143850 | 85 | 206 | 5.0 | 12.0 | 0.00 | 0.00 | 0.00 | 69 | 1013.6 |
| 20260903143352 | 85 | 179 | 6.0 | 16.0 | 0.00 | 0.00 | 0.00 | 70 | 1013.5 |
| 20260903142850 | 85 | 195 | 9.0 | 16.0 | 0.00 | 0.00 | 0.00 | 70 | 1013.5 |
| 20260903142350 | 84 | 185 | 5.0 | 15.0 | 0.00 | 0.00 | 0.00 | 72 | 1013.6 |
| 20260903141850 | 83 | 193 | 6.0 | 16.0 | 0.00 | 0.00 | 0.00 | 71 | 1013.6 |
| 20260903141351 | 83 | 178 | 8.0 | 17.0 | 0.00 | 0.00 | 0.00 | 72 | 1013.8 |
| 20260903140851 | 83 | 213 | 6.0 | 19.0 | 0.00 | 0.00 | 0.00 | 73 | 1013.8 |
| 20260903140350 | 83 | 210 | 7.0 | 19.0 | 0.00 | 0.00 | 0.00 | 72 | 1013.8 |
| 20260903135850 | 83 | 180 | 6.0 | 14.0 | 0.00 | 0.00 | 0.00 | 72 | 1013.7 |
| 20260903135349 | 82 | 193 | 6.0 | 14.0 | 0.00 | 0.00 | 0.00 | 73 | 1013.7 |
| 20260903134849 | 82 | 224 | 4.0 | 14.0 | 0.00 | 0.00 | 0.00 | 75 | 1013.8 |
| 20260903134349 | 81 | 190 | 6.0 | 18.0 | 0.00 | 0.00 | 0.00 | 75 | 1013.7 |
| 20260903133849 | 81 | 226 | 6.0 | 18.0 | 0.00 | 0.00 | 0.00 | 74 | 1013.7 |
| 20260903133350 | 80 | 190 | 6.0 | 15.0 | 0.00 | 0.00 | 0.00 | 76 | 1013.7 |
| 20260903132849 | 80 | 197 | 5.0 | 16.0 | 0.00 | 0.00 | 0.00 | 77 | 1013.7 |
| 20260903131849 | 79 | 178 | 6.0 | 14.0 | 0.00 | 0.00 | 0.00 | 77 | 1013.6 |
| 20260903131349 | 79 | 161 | 6.0 | 14.0 | 0.00 | 0.00 | 0.00 | 78 | 1013.5 |
| 20260903130849 | 78 | 199 | 3.0 | 7.0 | 0.00 | 0.00 | 0.00 | 81 | 1013.4 |
| 20260903130349 | 77 | 164 | 2.0 | 7.0 | 0.00 | 0.00 | 0.00 | 82 | 1013.5 |
| 20260903125349 | 76 | 172 | 4.0 | 6.0 | 0.00 | 0.00 | 0.00 | 84 | 1013.5 |
| 20260903124848 | 75 | 166 | 3.0 | 5.0 | 0.00 | 0.00 | 0.00 | 86 | 1013.4 |
| 20260903124348 | 74 | 166 | 3.0 | 5.0 | 0.00 | 0.00 | 0.00 | 87 | 1013.3 |
| 20260903123348 | 72 | 183 | 2.0 | 6.0 | 0.00 | 0.00 | 0.00 | 89 | 1013.3 |
| 20260903122848 | 71 | 161 | 2.0 | 6.0 | 0.00 | 0.00 | 0.00 | 90 | 1013.3 |
| 20260903122347 | 70 | 180 | 2.0 | 4.0 | 0.00 | 0.00 | 0.00 | 92 | 1013.3 |
| 20260903121848 | 69 | 165 | 2.0 | 3.0 | 0.00 | 0.00 | 0.00 | 93 | 1013.2 |
| 20260903121347 | 69 | 165 | 2.0 | 4.0 | 0.00 | 0.00 | 0.00 | 92 | 1013.2 |
| 20260903120848 | 69 | 165 | 1.0 | 4.0 | 0.00 | 0.00 | 0.00 | 92 | 1013.2 |
| 20260903115847 | 69 | 173 | 1.0 | 3.0 | 0.00 | 0.00 | 0.00 | 91 | 1013.1 |
| 20260903115346 | 70 | 161 | 2.0 | 3.0 | 0.00 | 0.00 | 0.00 | 91 | 1013.0 |
| 20260903114847 | 70 | 169 | 1.0 | 3.0 | 0.00 | 0.00 | 0.00 | 90 | 1013.0 |
| 20260903114347 | 71 | 169 | 2.0 | 4.0 | 0.00 | 0.00 | 0.00 | 89 | 1012.9 |
| 20260903113846 | 71 | 171 | 2.0 | 4.0 | 0.00 | 0.00 | 0.00 | 89 | 1012.8 |
| 20260903113347 | 71 | 185 | 2.0 | 4.0 | 0.00 | 0.00 | 0.00 | 89 | 1012.9 |
| 20260903112847 | 71 | 197 | 2.0 | 6.0 | 0.00 | 0.00 | 0.00 | 89 | 1012.9 |
| 20260903112346 | 71 | 200 | 2.0 | 6.0 | 0.00 | 0.00 | 0.00 | 89 | 1012.8 |
| 20260903111846 | 70 | 204 | 2.0 | 4.0 | 0.00 | 0.00 | 0.00 | 90 | 1012.8 |
| 20260903110846 | 70 | 178 | 2.0 | 4.0 | 0.00 | 0.00 | 0.00 | 90 | 1012.9 |
| 20260903110346 | 71 | 165 | 2.0 | 5.0 | 0.00 | 0.00 | 0.00 | 90 | 1012.9 |
| 20260903105846 | 71 | 195 | 2.0 | 5.0 | 0.00 | 0.00 | 0.00 | 89 | 1012.8 |
| 20260903104845 | 71 | 209 | 2.0 | 5.0 | 0.00 | 0.00 | 0.00 | 88 | 1012.8 |
| 20260903104345 | 71 | 206 | 2.0 | 7.0 | 0.00 | 0.00 | 0.00 | 89 | 1012.7 |
| 20260903103845 | 71 | 166 | 3.0 | 7.0 | 0.00 | 0.00 | 0.00 | 89 | 1012.8 |
| 20260903103345 | 70 | 199 | 4.0 | 7.0 | 0.00 | 0.00 | 0.00 | 91 | 1012.6 |
| 20260903102845 | 69 | 175 | 3.0 | 5.0 | 0.00 | 0.00 | 0.00 | 93 | 1012.7 |
| 20260903102345 | 69 | 192 | 2.0 | 4.0 | 0.00 | 0.00 | 0.00 | 93 | 1012.6 |
| 20260903101844 | 68 | 226 | 2.0 | 4.0 | 0.00 | 0.00 | 0.00 | 93 | 1012.6 |
| 20260903100344 | 69 | 185 | 2.0 | 4.0 | 0.00 | 0.00 | 0.00 | 93 | 1012.6 |
| 20260903095844 | 68 | 182 | 1.0 | 4.0 | 0.00 | 0.00 | 0.00 | 93 | 1012.6 |
| 20260903095344 | 68 | 179 | 2.0 | 3.0 | 0.00 | 0.00 | 0.00 | 94 | 1012.6 |
| 20260903094344 | 68 | 179 | 2.0 | 3.0 | 0.00 | 0.00 | 0.00 | 94 | 1012.6 |
| 20260903093843 | 68 | 172 | 2.0 | 4.0 | 0.00 | 0.00 | 0.00 | 95 | 1012.6 |
| 20260903093343 | 67 | 171 | 2.0 | 5.0 | 0.00 | 0.00 | 0.00 | 95 | 1012.6 |
| 20260903092843 | 67 | 149 | 2.0 | 5.0 | 0.00 | 0.00 | 0.00 | 95 | 1012.5 |
| 20260903092344 | 67 | 171 | 2.0 | 3.0 | 0.00 | 0.00 | 0.00 | 95 | 1012.6 |
| 20260903091844 | 67 | 171 | 1.0 | 2.0 | 0.00 | 0.00 | 0.00 | 95 | 1012.5 |
| 20260903091343 | 67 | 171 | 1.0 | 2.0 | 0.00 | 0.00 | 0.00 | 95 | 1012.5 |
| 20260903090843 | 67 | 171 | 0.0 | 1.0 | 0.00 | 0.00 | 0.00 | 95 | 1012.5 |
| 20260903090343 | 67 | 171 | 0.0 | 1.0 | 0.00 | 0.00 | 0.00 | 95 | 1012.5 |
| 20260903085843 | 67 | 171 | 0.0 | 2.0 | 0.00 | 0.00 | 0.00 | 95 | 1012.4 |
| 20260903085343 | 67 | 171 | 0.0 | 2.0 | 0.00 | 0.00 | 0.00 | 95 | 1012.4 |
| 20260903084843 | 67 | 171 | 0.0 | 1.0 | 0.00 | 0.00 | 0.00 | 95 | 1012.5 |
| 20260903084343 | 67 | 171 | 0.0 | 0.0 | 0.00 | 0.00 | 0.00 | 94 | 1012.5 |
| 20260903083842 | 67 | 171 | 0.0 | 0.0 | 0.00 | 0.00 | 0.00 | 94 | 1012.4 |
| 20260903082842 | 67 | 171 | 0.0 | 0.0 | 0.00 | 0.00 | 0.00 | 94 | 1012.4 |
| 20260903082342 | 67 | 171 | 0.0 | 0.0 | 0.00 | 0.00 | 0.00 | 94 | 1012.3 |
| 20260903081842 | 68 | 171 | 0.0 | 0.0 | 0.00 | 0.00 | 0.00 | 93 | 1012.4 |
| 20260903081341 | 68 | 171 | 0.0 | 1.0 | 0.00 | 0.00 | 0.00 | 93 | 1012.4 |
| 20260903080842 | 68 | 171 | 0.0 | 1.0 | 0.00 | 0.00 | 0.00 | 93 | 1012.3 |
| 20260903080342 | 68 | 171 | 0.0 | 0.0 | 0.00 | 0.00 | 0.00 | 93 | 1012.3 |
| 20260903075342 | 68 | 171 | 0.0 | 0.0 | 0.00 | 0.00 | 0.00 | 95 | 1012.3 |
| 20260903074841 | 68 | 171 | 0.0 | 0.0 | 0.00 | 0.00 | 0.00 | 94 | 1012.2 |
| 20260903074341 | 68 | 171 | 0.0 | 0.0 | 0.00 | 0.00 | 0.00 | 94 | 1012.3 |
| 20260903073841 | 68 | 171 | 0.0 | 4.0 | 0.00 | 0.00 | 0.00 | 94 | 1012.4 |
| 20260903073341 | 68 | 171 | 0.0 | 4.0 | 0.00 | 0.00 | 0.00 | 94 | 1012.3 |
| 20260903072841 | 68 | 171 | 1.0 | 3.0 | 0.00 | 0.00 | 0.00 | 94 | 1012.5 |
| 20260903072341 | 68 | 171 | 0.0 | 0.0 | 0.00 | 0.00 | 0.00 | 94 | 1012.2 |
| 20260903070840 | 68 | 171 | 0.0 | 0.0 | 0.00 | 0.00 | 0.00 | 94 | 1012.2 |
| 20260903070340 | 68 | 171 | 0.0 | 0.0 | 0.00 | 0.00 | 0.00 | 94 | 1012.2 |
| 20260903065839 | 68 | 171 | 0.0 | 0.0 | 0.00 | 0.00 | 0.00 | 94 | 1012.1 |
| 20260903065340 | 68 | 171 | 0.0 | 0.0 | 0.00 | 0.00 | 0.00 | 94 | 1012.1 |
| 20260903064840 | 68 | 171 | 0.0 | 0.0 | 0.00 | 0.00 | 0.00 | 94 | 1012.2 |
| 20260903064340 | 69 | 171 | 0.0 | 0.0 | 0.00 | 0.00 | 0.00 | 94 | 1012.1 |
| 20260903063839 | 69 | 171 | 0.0 | 0.0 | 0.00 | 0.00 | 0.00 | 93 | 1012.2 |
| 20260903063339 | 69 | 171 | 0.0 | 0.0 | 0.00 | 0.00 | 0.00 | 93 | 1012.2 |
| 20260903062839 | 69 | 171 | 0.0 | 0.0 | 0.00 | 0.00 | 0.00 | 93 | 1012.3 |
| 20260903062339 | 69 | 171 | 0.0 | 0.0 | 0.00 | 0.00 | 0.00 | 93 | 1012.2 |
| 20260903061839 | 69 | 171 | 0.0 | 0.0 | 0.00 | 0.00 | 0.00 | 93 | 1012.3 |
| 20260903061338 | 69 | 171 | 0.0 | 0.0 | 0.00 | 0.00 | 0.00 | 92 | 1012.3 |
| 20260903060839 | 69 | 171 | 0.0 | 0.0 | 0.00 | 0.00 | 0.00 | 92 | 1012.3 |
| 20260903060339 | 70 | 171 | 0.0 | 0.0 | 0.00 | 0.00 | 0.00 | 92 | 1012.3 |
| 20260903055839 | 70 | 171 | 0.0 | 1.0 | 0.00 | 0.00 | 0.00 | 92 | 1012.3 |
| 20260903055338 | 70 | 171 | 0.0 | 1.0 | 0.00 | 0.00 | 0.00 | 91 | 1012.3 |
| 20260903054838 | 70 | 171 | 0.0 | 1.0 | 0.00 | 0.00 | 0.00 | 91 | 1012.3 |
| 20260903054338 | 70 | 171 | 0.0 | 1.0 | 0.00 | 0.00 | 0.00 | 92 | 1012.3 |
| 20260903053338 | 70 | 171 | 0.0 | 1.0 | 0.00 | 0.00 | 0.00 | 92 | 1012.3 |
| 20260903052839 | 70 | 171 | 0.0 | 0.0 | 0.00 | 0.00 | 0.00 | 91 | 1012.2 |
| 20260903052338 | 70 | 171 | 0.0 | 1.0 | 0.00 | 0.00 | 0.00 | 91 | 1012.2 |
| 20260903051838 | 70 | 171 | 0.0 | 1.0 | 0.00 | 0.00 | 0.00 | 91 | 1012.3 |
| 20260903050838 | 71 | 171 | 0.0 | 1.0 | 0.00 | 0.00 | 0.00 | 90 | 1012.2 |
| 20260903050338 | 71 | 171 | 0.0 | 1.0 | 0.00 | 0.00 | 0.00 | 90 | 1012.2 |
| 20260903045337 | 71 | 171 | 0.0 | 0.0 | 0.00 | 0.00 | 0.00 | 90 | 1012.3 |
| 20260903044837 | 71 | 171 | 0.0 | 0.0 | 0.00 | 0.00 | 0.00 | 89 | 1012.2 |
| 20260903044337 | 71 | 171 | 0.0 | 0.0 | 0.00 | 0.00 | 0.00 | 89 | 1012.2 |
| 20260903043837 | 71 | 171 | 0.0 | 0.0 | 0.00 | 0.00 | 0.00 | 89 | 1012.2 |
| 20260903043336 | 71 | 171 | 0.0 | 0.0 | 0.00 | 0.00 | 0.00 | 89 | 1012.2 |
| 20260903042836 | 71 | 171 | 0.0 | 0.0 | 0.00 | 0.00 | 0.00 | 89 | 1012.3 |
| 20260903041836 | 72 | 171 | 0.0 | 0.0 | 0.00 | 0.00 | 0.00 | 89 | 1012.3 |
| 20260903040836 | 72 | 171 | 0.0 | 0.0 | 0.00 | 0.00 | 0.00 | 88 | 1012.3 |
| 20260903040336 | 72 | 171 | 0.0 | 0.0 | 0.00 | 0.00 | 0.00 | 88 | 1012.3 |
| 20260903035336 | 72 | 171 | 0.0 | 0.0 | 0.00 | 0.00 | 0.00 | 87 | 1012.4 |
| 20260903034836 | 73 | 171 | 0.0 | 0.0 | 0.00 | 0.00 | 0.00 | 87 | 1012.3 |
| 20260903034335 | 73 | 171 | 0.0 | 0.0 | 0.00 | 0.00 | 0.00 | 87 | 1012.4 |
| 20260903033335 | 73 | 171 | 0.0 | 0.0 | 0.00 | 0.00 | 0.00 | 87 | 1012.4 |
| 20260903032836 | 73 | 171 | 0.0 | 0.0 | 0.00 | 0.00 | 0.00 | 86 | 1012.4 |
| 20260903032335 | 73 | 171 | 0.0 | 0.0 | 0.00 | 0.00 | 0.00 | 86 | 1012.3 |
| 20260903031835 | 73 | 171 | 0.0 | 1.0 | 0.00 | 0.00 | 0.00 | 87 | 1012.3 |
| 20260903031335 | 74 | 171 | 0.0 | 1.0 | 0.00 | 0.00 | 0.00 | 86 | 1012.4 |
| 20260903030835 | 74 | 171 | 0.0 | 1.0 | 0.00 | 0.00 | 0.00 | 85 | 1012.3 |
| 20260903030334 | 74 | 171 | 0.0 | 1.0 | 0.00 | 0.00 | 0.00 | 85 | 1012.3 |
| 20260903025834 | 74 | 171 | 0.0 | 0.0 | 0.00 | 0.00 | 0.00 | 84 | 1012.3 |
| 20260903025334 | 74 | 171 | 0.0 | 0.0 | 0.00 | 0.00 | 0.00 | 84 | 1012.3 |
| 20260903024835 | 74 | 171 | 0.0 | 0.0 | 0.00 | 0.00 | 0.00 | 83 | 1012.2 |
| 20260903024334 | 74 | 171 | 0.0 | 0.0 | 0.00 | 0.00 | 0.00 | 83 | 1012.1 |
| 20260903023834 | 74 | 171 | 0.0 | 0.0 | 0.00 | 0.00 | 0.00 | 83 | 1012.1 |
| 20260903023334 | 75 | 171 | 0.0 | 0.0 | 0.00 | 0.00 | 0.00 | 82 | 1012.1 |
| 20260903022834 | 75 | 171 | 0.0 | 0.0 | 0.00 | 0.00 | 0.00 | 82 | 1012.1 |
| 20260903022333 | 75 | 171 | 0.0 | 0.0 | 0.00 | 0.00 | 0.00 | 82 | 1012.1 |
| 20260903021834 | 75 | 171 | 0.0 | 0.0 | 0.00 | 0.00 | 0.00 | 81 | 1012.0 |
| 20260903021334 | 75 | 171 | 0.0 | 0.0 | 0.00 | 0.00 | 0.00 | 81 | 1012.0 |
| 20260903020834 | 76 | 171 | 0.0 | 0.0 | 0.00 | 0.00 | 0.00 | 80 | 1011.9 |
| 20260903020333 | 76 | 171 | 0.0 | 0.0 | 0.00 | 0.00 | 0.00 | 78 | 1011.8 |
| 20260903015333 | 76 | 171 | 0.0 | 0.0 | 0.00 | 0.00 | 0.00 | 77 | 1011.6 |
| 20260903014833 | 77 | 171 | 0.0 | 0.0 | 0.00 | 0.00 | 0.00 | 76 | 1011.7 |
| 20260903014332 | 77 | 171 | 0.0 | 0.0 | 0.00 | 0.00 | 0.00 | 75 | 1011.6 |
| 20260903013832 | 78 | 171 | 0.0 | 1.0 | 0.00 | 0.00 | 0.00 | 75 | 1011.5 |
| 20260903013333 | 78 | 171 | 0.0 | 1.0 | 0.00 | 0.00 | 0.00 | 73 | 1011.5 |
| 20260903012832 | 78 | 171 | 0.0 | 2.0 | 0.00 | 0.00 | 0.00 | 73 | 1011.4 |
| 20260903011832 | 80 | 171 | 1.0 | 2.0 | 0.00 | 0.00 | 0.00 | 71 | 1011.4 |
| 20260903010333 | 81 | 171 | 2.0 | 4.0 | 0.00 | 0.00 | 0.00 | 69 | 1011.3 |
| 20260903005833 | 82 | 171 | 1.0 | 6.0 | 0.00 | 0.00 | 0.00 | 67 | 1011.2 |
| 20260903005332 | 83 | 183 | 2.0 | 6.0 | 0.00 | 0.00 | 0.00 | 65 | 1011.3 |
| 20260903004831 | 83 | 185 | 2.0 | 4.0 | 0.00 | 0.00 | 0.00 | 64 | 1011.3 |
| 20260903004331 | 83 | 175 | 2.0 | 5.0 | 0.00 | 0.00 | 0.00 | 65 | 1011.3 |
| 20260903003831 | 83 | 152 | 3.0 | 5.0 | 0.00 | 0.00 | 0.00 | 65 | 1011.2 |
| 20260903003331 | 83 | 169 | 1.0 | 3.0 | 0.00 | 0.00 | 0.00 | 66 | 1011.2 |
| 20260903002331 | 86 | 169 | 0.0 | 4.0 | 0.00 | 0.00 | 0.00 | 62 | 1011.2 |
| 20260903001831 | 87 | 169 | 2.0 | 4.0 | 0.00 | 0.00 | 0.00 | 60 | 1011.2 |
| 20260903001331 | 88 | 176 | 1.0 | 4.0 | 0.00 | 0.00 | 0.00 | 58 | 1011.2 |
| 20260903000831 | 89 | 190 | 2.0 | 4.0 | 0.00 | 0.00 | 0.00 | 54 | 1011.2 |
| 20260903000332 | 90 | 193 | 2.0 | 4.0 | 0.00 | 0.00 | 0.00 | 54 | 1011.2 |
| 20260902235830 | 91 | 173 | 2.0 | 10.0 | 0.00 | 0.00 | 0.00 | 52 | 1011.2 |
| 20260902235330 | 93 | 185 | 3.0 | 10.0 | 0.00 | 0.00 | 0.00 | 49 | 1011.2 |
| 20260902234830 | 93 | 157 | 2.0 | 5.0 | 0.00 | 0.00 | 0.00 | 49 | 1011.2 |
| 20260902234330 | 94 | 164 | 3.0 | 13.0 | 0.00 | 0.00 | 0.00 | 46 | 1011.2 |
| 20260902233330 | 95 | 197 | 3.0 | 11.0 | 0.00 | 0.00 | 0.00 | 45 | 1011.3 |
| 20260902232829 | 95 | 169 | 4.0 | 9.0 | 0.00 | 0.00 | 0.00 | 43 | 1011.3 |
| 20260902232329 | 96 | 157 | 4.0 | 11.0 | 0.00 | 0.00 | 0.00 | 41 | 1011.3 |
| 20260902231829 | 96 | 212 | 5.0 | 11.0 | 0.00 | 0.00 | 0.00 | 42 | 1011.3 |
| 20260902231330 | 96 | 183 | 3.0 | 13.0 | 0.00 | 0.00 | 0.00 | 43 | 1011.3 |
| 20260902230829 | 96 | 199 | 5.0 | 15.0 | 0.00 | 0.00 | 0.00 | 43 | 1011.3 |
| 20260902230330 | 97 | 226 | 8.0 | 15.0 | 0.00 | 0.00 | 0.00 | 42 | 1011.3 |
| 20260902225829 | 97 | 171 | 6.0 | 13.0 | 0.00 | 0.00 | 0.00 | 42 | 1011.4 |
| 20260902224828 | 97 | 147 | 4.0 | 11.0 | 0.00 | 0.00 | 0.00 | 41 | 1011.4 |
| 20260902224328 | 97 | 180 | 7.0 | 11.0 | 0.00 | 0.00 | 0.00 | 42 | 1011.4 |
| 20260902223828 | 97 | 196 | 4.0 | 15.0 | 0.00 | 0.00 | 0.00 | 40 | 1011.3 |
| 20260902223328 | 97 | 157 | 7.0 | 15.0 | 0.00 | 0.00 | 0.00 | 40 | 1011.5 |
| 20260902222828 | 98 | 237 | 4.0 | 13.0 | 0.00 | 0.00 | 0.00 | 41 | 1011.4 |
| 20260902221828 | 98 | 173 | 6.0 | 12.0 | 0.00 | 0.00 | 0.00 | 40 | 1011.4 |
| 20260902220827 | 98 | 213 | 6.0 | 12.0 | 0.00 | 0.00 | 0.00 | 39 | 1011.4 |
| 20260902220327 | 99 | 221 | 7.0 | 13.0 | 0.00 | 0.00 | 0.00 | 40 | 1011.5 |
| 20260902215828 | 99 | 207 | 4.0 | 13.0 | 0.00 | 0.00 | 0.00 | 42 | 1011.4 |
| 20260902215327 | 99 | 199 | 7.0 | 13.0 | 0.00 | 0.00 | 0.00 | 40 | 1011.5 |
| 20260902214827 | 99 | 219 | 6.0 | 13.0 | 0.00 | 0.00 | 0.00 | 42 | 1011.6 |
| 20260902214327 | 99 | 185 | 6.0 | 13.0 | 0.00 | 0.00 | 0.00 | 39 | 1011.5 |
| 20260902213827 | 99 | 168 | 6.0 | 14.0 | 0.00 | 0.00 | 0.00 | 40 | 1011.6 |
| 20260902213326 | 99 | 202 | 7.0 | 16.0 | 0.00 | 0.00 | 0.00 | 40 | 1011.6 |
| 20260902212827 | 99 | 169 | 8.0 | 16.0 | 0.00 | 0.00 | 0.00 | 39 | 1011.7 |
| 20260902212327 | 99 | 168 | 5.0 | 14.0 | 0.00 | 0.00 | 0.00 | 42 | 1011.7 |
| 20260902211826 | 99 | 154 | 9.0 | 14.0 | 0.00 | 0.00 | 0.00 | 39 | 1011.8 |
| 20260902211326 | 99 | 179 | 6.0 | 16.0 | 0.00 | 0.00 | 0.00 | 40 | 1011.9 |
| 20260902210326 | 100 | 209 | 8.0 | 15.0 | 0.00 | 0.00 | 0.00 | 38 | 1012.1 |
| 20260902205326 | 99 | 254 | 5.0 | 15.0 | 0.00 | 0.00 | 0.00 | 40 | 1012.2 |
| 20260902204826 | 100 | 188 | 8.0 | 15.0 | 0.00 | 0.00 | 0.00 | 39 | 1012.2 |
| 20260902203826 | 100 | 248 | 7.0 | 16.0 | 0.00 | 0.00 | 0.00 | 40 | 1012.3 |
| 20260902203326 | 100 | 138 | 6.0 | 16.0 | 0.00 | 0.00 | 0.00 | 41 | 1012.4 |
| 20260902202825 | 100 | 182 | 7.0 | 14.0 | 0.00 | 0.00 | 0.00 | 40 | 1012.4 |
| 20260902202325 | 100 | 116 | 7.0 | 16.0 | 0.00 | 0.00 | 0.00 | 41 | 1012.5 |
| 20260902201825 | 100 | 216 | 8.0 | 16.0 | 0.00 | 0.00 | 0.00 | 41 | 1012.5 |
| 20260902201325 | 100 | 231 | 4.0 | 18.0 | 0.00 | 0.00 | 0.00 | 45 | 1012.6 |
| 20260902200824 | 99 | 159 | 9.0 | 18.0 | 0.00 | 0.00 | 0.00 | 42 | 1012.8 |
| 20260902200325 | 99 | 190 | 6.0 | 16.0 | 0.00 | 0.00 | 0.00 | 41 | 1012.7 |
| 20260902195324 | 99 | 185 | 6.0 | 16.0 | 0.00 | 0.00 | 0.00 | 42 | 1012.8 |
| 20260902194824 | 99 | 178 | 9.0 | 16.0 | 0.00 | 0.00 | 0.00 | 41 | 1013.0 |
| 20260902194324 | 99 | 209 | 6.0 | 17.0 | 0.00 | 0.00 | 0.00 | 42 | 1013.0 |
| 20260902193824 | 99 | 220 | 8.0 | 17.0 | 0.00 | 0.00 | 0.00 | 43 | 1013.1 |
| 20260902193323 | 99 | 145 | 7.0 | 17.0 | 0.00 | 0.00 | 0.00 | 41 | 1013.1 |
| 20260902192823 | 99 | 193 | 9.0 | 15.0 | 0.00 | 0.00 | 0.00 | 42 | 1013.2 |
| 20260902192324 | 99 | 195 | 8.0 | 15.0 | 0.00 | 0.00 | 0.00 | 42 | 1013.3 |
| 20260902191824 | 100 | 213 | 7.0 | 14.0 | 0.00 | 0.00 | 0.00 | 43 | 1013.3 |
| 20260902191323 | 98 | 179 | 6.0 | 14.0 | 0.00 | 0.00 | 0.00 | 44 | 1013.3 |
| 20260902190824 | 99 | 180 | 7.0 | 14.0 | 0.00 | 0.00 | 0.00 | 43 | 1013.5 |
| 20260902190323 | 100 | 228 | 6.0 | 14.0 | 0.00 | 0.00 | 0.00 | 43 | 1013.5 |
| 20260902185823 | 98 | 220 | 7.0 | 15.0 | 0.00 | 0.00 | 0.00 | 43 | 1013.5 |
| 20260902184323 | 98 | 200 | 8.0 | 18.0 | 0.00 | 0.00 | 0.00 | 44 | 1013.8 |
| 20260902183823 | 99 | 165 | 9.0 | 17.0 | 0.00 | 0.00 | 0.00 | 43 | 1013.9 |
| 20260902183322 | 98 | 117 | 7.0 | 15.0 | 0.00 | 0.00 | 0.00 | 45 | 1013.7 |
| 20260902182822 | 98 | 212 | 6.0 | 15.0 | 0.00 | 0.00 | 0.00 | 46 | 1013.9 |
| 20260902182323 | 98 | 172 | 9.0 | 16.0 | 0.00 | 0.00 | 0.00 | 45 | 1014.0 |
| 20260902181822 | 98 | 197 | 7.0 | 16.0 | 0.00 | 0.00 | 0.00 | 46 | 1014.1 |
| 20260902181322 | 98 | 182 | 7.0 | 15.0 | 0.00 | 0.00 | 0.00 | 47 | 1014.1 |
| 20260902180822 | 98 | 266 | 7.0 | 18.0 | 0.00 | 0.00 | 0.00 | 49 | 1014.1 |
| 20260902180322 | 97 | 178 | 9.0 | 19.0 | 0.00 | 0.00 | 0.00 | 47 | 1014.3 |
| 20260902175821 | 97 | 195 | 7.0 | 19.0 | 0.00 | 0.00 | 0.00 | 47 | 1014.2 |
| 20260902175321 | 97 | 131 | 6.0 | 16.0 | 0.00 | 0.00 | 0.00 | 51 | 1014.3 |
| 20260902174821 | 96 | 171 | 8.0 | 14.0 | 0.00 | 0.00 | 0.00 | 48 | 1014.5 |
| 20260902174321 | 97 | 206 | 7.0 | 13.0 | 0.00 | 0.00 | 0.00 | 48 | 1014.5 |
| 20260902173321 | 96 | 305 | 5.0 | 15.0 | 0.00 | 0.00 | 0.00 | 49 | 1014.6 |
| 20260902172321 | 96 | 220 | 6.0 | 21.0 | 0.00 | 0.00 | 0.00 | 50 | 1014.8 |
| 20260902171820 | 96 | 188 | 9.0 | 17.0 | 0.00 | 0.00 | 0.00 | 49 | 1014.7 |
| 20260902171320 | 96 | 190 | 6.0 | 14.0 | 0.00 | 0.00 | 0.00 | 52 | 1014.7 |
| 20260902170820 | 95 | 200 | 7.0 | 15.0 | 0.00 | 0.00 | 0.00 | 51 | 1014.9 |
| 20260902170320 | 95 | 127 | 8.0 | 17.0 | 0.00 | 0.00 | 0.00 | 53 | 1015.0 |
| 20260902165320 | 94 | 193 | 8.0 | 16.0 | 0.00 | 0.00 | 0.00 | 52 | 1014.9 |
| 20260902164820 | 94 | 200 | 7.0 | 16.0 | 0.00 | 0.00 | 0.00 | 54 | 1015.0 |
| 20260902163819 | 94 | 157 | 9.0 | 16.0 | 0.00 | 0.00 | 0.00 | 53 | 1015.1 |
| 20260902163319 | 94 | 209 | 7.0 | 16.0 | 0.00 | 0.00 | 0.00 | 55 | 1015.1 |
| 20260902162819 | 93 | 204 | 6.0 | 16.0 | 0.00 | 0.00 | 0.00 | 55 | 1015.2 |
| 20260902162320 | 93 | 173 | 8.0 | 18.0 | 0.00 | 0.00 | 0.00 | 56 | 1015.3 |
| 20260902161819 | 92 | 216 | 9.0 | 18.0 | 0.00 | 0.00 | 0.00 | 56 | 1015.4 |
| 20260902161319 | 92 | 210 | 7.0 | 15.0 | 0.00 | 0.00 | 0.00 | 55 | 1015.3 |
| 20260902160819 | 92 | 228 | 7.0 | 16.0 | 0.00 | 0.00 | 0.00 | 56 | 1015.4 |
| 20260902160319 | 92 | 196 | 10.0 | 16.0 | 0.00 | 0.00 | 0.00 | 56 | 1015.5 |
| 20260902155819 | 92 | 182 | 9.0 | 15.0 | 0.00 | 0.00 | 0.00 | 56 | 1015.4 |
| 20260902155319 | 91 | 168 | 6.0 | 16.0 | 0.00 | 0.00 | 0.00 | 60 | 1015.4 |
| 20260902154819 | 90 | 199 | 10.0 | 16.0 | 0.00 | 0.00 | 0.00 | 58 | 1015.3 |
| 20260902154319 | 90 | 216 | 6.0 | 16.0 | 0.00 | 0.00 | 0.00 | 60 | 1015.3 |
| 20260902153818 | 90 | 195 | 6.0 | 16.0 | 0.00 | 0.00 | 0.00 | 59 | 1015.4 |
| 20260902153318 | 89 | 203 | 6.0 | 14.0 | 0.00 | 0.00 | 0.00 | 61 | 1015.4 |
| 20260902152818 | 89 | 165 | 7.0 | 13.0 | 0.00 | 0.00 | 0.00 | 62 | 1015.4 |
| 20260902152318 | 89 | 207 | 6.0 | 12.0 | 0.00 | 0.00 | 0.00 | 64 | 1015.4 |